When you browse on this site, cookies collect data to enhance your experience and personalize the content and advertising you see.
Visit our Privacy Policy to learn more. By continuing to use the site, you agree to this use of cookies and data.
  • In Österreich
  • Länderverzeichnis
  • Für 7 Tage
  • Wassertemperatur
  • Wetterkarte
  • News
  • Widgets
  • user-avatar
    Anmelden

    Stündliche Wetter Barinas

    Heute, 23 Januar, Donnerstag

    Zeit Temperatur Niederschläge Wind Luftdruck Luftfeuchtigkeit
    00:00 +27°C° 0 mm 1 m/S 742 mmHg 66%
    01:00 +27°C° 0 mm 1 m/S 742 mmHg 65%
    02:00 +27°C° 0 mm 1 m/S 742 mmHg 65%
    03:00 +27°C° 0 mm 1 m/S 741 mmHg 65%
    04:00 +26°C° 0 mm 1 m/S 741 mmHg 64%
    05:00 +26°C° 0 mm 1 m/S 742 mmHg 66%
    06:00 +27°C° 0 mm 1 m/S 742 mmHg 67%
    07:00 +27°C° 0 mm 2 m/S 743 mmHg 68%
    08:00 +29°C° 0 mm 2 m/S 743 mmHg 61%
    09:00 +31°C° 0 mm 2 m/S 743 mmHg 53%
    10:00 +35°C° 0 mm 3 m/S 744 mmHg 45%
    11:00 +35°C° 0 mm 2 m/S 743 mmHg 43%
    12:00 +36°C° 0 mm 2 m/S 742 mmHg 41%
    13:00 +37°C° 0 mm 2 m/S 741 mmHg 39%
    14:00 +37°C° 0 mm 2 m/S 741 mmHg 39%
    15:00 +37°C° 0 mm 2 m/S 740 mmHg 39%
    16:00 +37°C° 0 mm 2 m/S 740 mmHg 39%
    17:00 +35°C° 0 mm 2 m/S 740 mmHg 45%
    18:00 +33°C° 0 mm 1 m/S 740 mmHg 50%
    19:00 +31°C° 0 mm 1 m/S 741 mmHg 56%
    20:00 +31°C° 0 mm 1 m/S 741 mmHg 58%
    21:00 +30°C° 0 mm 1 m/S 742 mmHg 60%
    22:00 +30°C° 0 mm 1 m/S 742 mmHg 62%
    23:00 +29°C° 0 mm 1 m/S 742 mmHg 63%

    Morgen, 24 Januar, Freitag

    Zeit Temperatur Niederschläge Wind Luftdruck Luftfeuchtigkeit
    00:00 +29°C° 0 mm 1 m/S 742 mmHg 63%
    01:00 +29°C° 0 mm 1 m/S 742 mmHg 64%
    02:00 +28°C° 0 mm 1 m/S 742 mmHg 66%
    03:00 +28°C° 0 mm 1 m/S 741 mmHg 68%
    04:00 +27°C° 0 mm 2 m/S 741 mmHg 70%
    05:00 +27°C° 0 mm 1 m/S 742 mmHg 71%
    06:00 +27°C° 0 mm 1 m/S 742 mmHg 71%
    07:00 +27°C° 0 mm 1 m/S 743 mmHg 72%
    08:00 +29°C° 0 mm 1 m/S 743 mmHg 65%
    09:00 +31°C° 0 mm 1 m/S 744 mmHg 59%
    10:00 +33°C° 0 mm 1 m/S 744 mmHg 52%
    11:00 +34°C° 0.1 mm 1 m/S 743 mmHg 49%
    12:00 +35°C° 0.1 mm 1 m/S 743 mmHg 46%
    13:00 +36°C° 0.1 mm 1 m/S 742 mmHg 43%
    14:00 +36°C° 0.2 mm 1 m/S 741 mmHg 44%
    15:00 +36°C° 0.2 mm 1 m/S 741 mmHg 44%
    16:00 +35°C° 0.2 mm 1 m/S 740 mmHg 45%
    17:00 +34°C° 0 mm 1 m/S 740 mmHg 49%
    18:00 +33°C° 0 mm 1 m/S 741 mmHg 52%
    19:00 +32°C° 0 mm 1 m/S 741 mmHg 56%
    20:00 +31°C° 0 mm 1 m/S 742 mmHg 56%
    21:00 +30°C° 0 mm 1 m/S 743 mmHg 57%
    22:00 +30°C° 0 mm 1 m/S 743 mmHg 57%
    23:00 +29°C° 0 mm 1 m/S 743 mmHg 60%

    übermorgen, 25 Januar, Samstag

    Zeit Temperatur Niederschläge Wind Luftdruck Luftfeuchtigkeit
    00:00 +28°C° 0 mm 1 m/S 743 mmHg 62%
    01:00 +27°C° 0 mm 1 m/S 743 mmHg 65%
    02:00 +26°C° 0 mm 1 m/S 742 mmHg 66%
    03:00 +26°C° 0 mm 1 m/S 742 mmHg 67%
    04:00 +25°C° 0 mm 1 m/S 742 mmHg 68%
    05:00 +26°C° 0 mm 1 m/S 743 mmHg 67%
    06:00 +26°C° 0 mm 1 m/S 744 mmHg 67%
    07:00 +26°C° 0 mm 1 m/S 744 mmHg 67%
    08:00 +28°C° 0 mm 2 m/S 745 mmHg 59%
    09:00 +31°C° 0 mm 2 m/S 745 mmHg 50%
    10:00 +34°C° 0 mm 3 m/S 745 mmHg 42%
    11:00 +35°C° 0 mm 3 m/S 744 mmHg 39%
    12:00 +36°C° 0 mm 3 m/S 744 mmHg 36%
    13:00 +37°C° 0 mm 3 m/S 743 mmHg 33%
    14:00 +37°C° 0 mm 3 m/S 742 mmHg 33%
    15:00 +37°C° 0 mm 3 m/S 742 mmHg 34%
    16:00 +37°C° 0 mm 3 m/S 741 mmHg 35%
    17:00 +35°C° 0 mm 2 m/S 741 mmHg 40%
    18:00 +32°C° 0 mm 2 m/S 742 mmHg 45%
    19:00 +30°C° 0 mm 1 m/S 742 mmHg 50%
    20:00 +29°C° 0 mm 1 m/S 742 mmHg 52%
    21:00 +29°C° 0 mm 1 m/S 743 mmHg 54%
    22:00 +28°C° 0 mm 1 m/S 743 mmHg 56%
    23:00 +28°C° 0 mm 1 m/S 743 mmHg 57%

    26 Januar, Sonntag

    Zeit Temperatur Niederschläge Wind Luftdruck Luftfeuchtigkeit
    00:00 +27°C° 0 mm 1 m/S 742 mmHg 58%
    01:00 +27°C° 0 mm 1 m/S 742 mmHg 60%
    02:00 +27°C° 0 mm 1 m/S 742 mmHg 60%
    03:00 +26°C° 0 mm 1 m/S 742 mmHg 61%
    04:00 +26°C° 0 mm 1 m/S 742 mmHg 62%
    05:00 +26°C° 0 mm 1 m/S 743 mmHg 61%
    06:00 +26°C° 0 mm 1 m/S 743 mmHg 61%
    07:00 +27°C° 0 mm 1 m/S 744 mmHg 61%
    08:00 +29°C° 0 mm 2 m/S 744 mmHg 55%
    09:00 +31°C° 0 mm 2 m/S 745 mmHg 50%
    10:00 +34°C° 0 mm 2 m/S 745 mmHg 44%
    11:00 +35°C° 0 mm 2 m/S 744 mmHg 42%
    12:00 +36°C° 0 mm 3 m/S 743 mmHg 40%
    13:00 +37°C° 0 mm 3 m/S 743 mmHg 38%
    14:00 +37°C° 0 mm 3 m/S 742 mmHg 38%
    15:00 +37°C° 0 mm 3 m/S 741 mmHg 38%
    16:00 +37°C° 0 mm 3 m/S 741 mmHg 38%
    17:00 +35°C° 0 mm 2 m/S 741 mmHg 44%
    18:00 +32°C° 0 mm 2 m/S 742 mmHg 50%
    19:00 +30°C° 0 mm 1 m/S 742 mmHg 56%
    20:00 +30°C° 0 mm 1 m/S 742 mmHg 57%
    21:00 +29°C° 0 mm 1 m/S 743 mmHg 59%
    22:00 +29°C° 0 mm 1 m/S 743 mmHg 61%
    23:00 +28°C° 0 mm 1 m/S 743 mmHg 62%

    27 Januar, Montag

    Zeit Temperatur Niederschläge Wind Luftdruck Luftfeuchtigkeit
    00:00 +28°C° 0 mm 1 m/S 743 mmHg 63%
    01:00 +28°C° 0 mm 1 m/S 743 mmHg 64%
    02:00 +27°C° 0 mm 1 m/S 742 mmHg 67%
    03:00 +27°C° 0 mm 1 m/S 742 mmHg 69%
    04:00 +26°C° 0 mm 1 m/S 742 mmHg 71%
    05:00 +27°C° 0 mm 1 m/S 743 mmHg 70%
    06:00 +27°C° 0 mm 1 m/S 744 mmHg 69%
    07:00 +27°C° 0 mm 1 m/S 744 mmHg 68%
    08:00 +30°C° 0 mm 1 m/S 745 mmHg 58%
    09:00 +32°C° 0 mm 2 m/S 745 mmHg 49%
    10:00 +35°C° 0 mm 2 m/S 745 mmHg 39%
    11:00 +36°C° 0 mm 2 m/S 745 mmHg 37%
    12:00 +37°C° 0 mm 2 m/S 744 mmHg 35%
    13:00 +37°C° 0 mm 2 m/S 743 mmHg 33%
    14:00 +37°C° 0 mm 2 m/S 742 mmHg 33%
    15:00 +37°C° 0 mm 2 m/S 742 mmHg 33%
    16:00 +37°C° 0 mm 2 m/S 741 mmHg 34%
    17:00 +35°C° 0 mm 2 m/S 741 mmHg 39%
    18:00 +32°C° 0 mm 1 m/S 742 mmHg 44%
    19:00 +30°C° 0 mm 1 m/S 742 mmHg 49%
    20:00 +30°C° 0 mm 1 m/S 742 mmHg 51%
    21:00 +29°C° 0 mm 1 m/S 743 mmHg 53%
    22:00 +28°C° 0 mm 1 m/S 743 mmHg 55%
    23:00 +28°C° 0 mm 1 m/S 743 mmHg 56%

    28 Januar, Dienstag

    Zeit Temperatur Niederschläge Wind Luftdruck Luftfeuchtigkeit
    00:00 +28°C° 0 mm 1 m/S 743 mmHg 57%
    01:00 +28°C° 0 mm 1 m/S 742 mmHg 58%
    02:00 +27°C° 0 mm 2 m/S 742 mmHg 60%
    03:00 +27°C° 0 mm 2 m/S 742 mmHg 61%
    04:00 +27°C° 0 mm 2 m/S 742 mmHg 62%
    05:00 +27°C° 0 mm 2 m/S 743 mmHg 62%
    06:00 +27°C° 0 mm 1 m/S 743 mmHg 63%
    07:00 +27°C° 0 mm 1 m/S 744 mmHg 63%
    08:00 +30°C° 0 mm 2 m/S 744 mmHg 56%
    09:00 +32°C° 0 mm 2 m/S 745 mmHg 48%
    10:00 +35°C° 0 mm 3 m/S 745 mmHg 41%
    11:00 +36°C° 0 mm 3 m/S 744 mmHg 39%
    12:00 +36°C° 0 mm 3 m/S 743 mmHg 37%
    13:00 +37°C° 0 mm 3 m/S 743 mmHg 35%
    14:00 +37°C° 0 mm 2 m/S 742 mmHg 35%
    15:00 +37°C° 0 mm 2 m/S 741 mmHg 35%
    16:00 +37°C° 0 mm 2 m/S 740 mmHg 34%
    17:00 +36°C° 0 mm 2 m/S 741 mmHg 39%
    18:00 +34°C° 0 mm 2 m/S 741 mmHg 44%
    19:00 +31°C° 0 mm 1 m/S 742 mmHg 49%
    20:00 +30°C° 0 mm 1 m/S 742 mmHg 51%
    21:00 +30°C° 0 mm 1 m/S 742 mmHg 53%
    22:00 +29°C° 0 mm 1 m/S 743 mmHg 56%
    23:00 +29°C° 0 mm 1 m/S 743 mmHg 57%
    Mehr zeigen